STARLINK-1788, 46689

Orbit data source: Space-Track

STARLINK-1788, 46689 is a payload satellite owned by SpaceX/Seattle (US) in LEO that was launched on Sun, 18 Oct 2020 UTC via an FALCON 9 launch vehicle from the Air Force Eastern Test Range (AFETR). Payload-class satellites include a variety of spacecraft equipped with specific instruments for various scientific and technological missions. These include communications satellites like Starlink; space stations such as the ISS; scientific satellites like the Hubble; Earth observation satellites from companies like Planet Labs, Umbra, and HawkEye 360; GPS; miniature CubeSats for education and research; and military/defense satellites.

Loading next visibility...
Identifier
46689, 2020-073V
Orbit
LEO
Country
Flag of USUS
Related business
Manufacturer
SpaceX/Seattle
Mission
Partially operational Commercial Communications
Bus & Motor
STARLINK, Unknown motor
Mass
260 kg wet, ~248 kg dry
Launch date (UTC)
2020-10-18 (6 years ago)
Launch vehicle
FALCON 9
Launch site
Air Force Eastern Test Range (AFETR)
Object type
Payload
Rocket body
Debris
Shape & HBR
Box + 1 Pan, 10.1 m
Radar Cross Section
13.562 m², Large (>1 m²)

Expand to show TLE details & history
Last TLE update: 4 hours ago

TLE from 4 hours ago
0 STARLINK-1788
1 46689U 20073V   26169.00003472  .00237579  00000-0  79555-3 0  9992
2 46689  53.0306  79.5800 0002750 108.7104  89.8101 15.88989252  6028
Epoch: 2026-06-18T00:00Z
TLE epoch observation values (Epoch: 2026-06-18T00:00:02.999Z)
Latitude
-14.89118°
Longitude
4.79795°
Altitude
309.116 km
Speed
7.723 km/s
True Right ascension
18h 04m 14s
True Declination
-14° 48' 01"
Sunlit
Object was in full shadow at epoch
Visualization orbit readout
Latitude
Unknown
Longitude
Unknown
Altitude
Unknown
Speed
Unknown
Apparent Right ascension
Unknown
Apparent Declination
Unknown
Sunlit
N/A
Visualization observer readout
Local Sidereal Time
14:41:08
Azimuth
Unknown
Elevation
Unknown
Doppler factor
Unknown
Orbital elements
Apogee altitude
307.238 km
Perigee altitude
303.562 km
Semi-major axis
6,683.537 km
Eccentricity
0.00028
Inclination
53.0306°
RAAN
79.58°
Arg. of periapsis
108.7104°
True anomaly
89.84161°
Mean anomaly
89.8101°
Eccentric anomaly
89.82586°
Mean motion
3.97222 °/min
Orbital period
90.63 mins
BSTAR
0.00079555
Loading maneuver chart data...
Computing Atmospheric mass density...
Loading historical data...
Loading historical data...
Loading historical data...
Loading historical data...
Loading historical data...
Loading historical data...
Loading historical data...

Documentation

Showing up to 5 results
|